Time,TemperatureF,DewpointF,PressureIn,WindDirection,WindDirectionDegrees,WindSpeedMPH,WindSpeedGustMPH,Humidity,HourlyPrecipIn,Conditions,Clouds,dailyrainin,SoftwareType,DateUTC
2013-04-06 00:00:00,47.6,31.3,30.03,NNW,331,0.0,0.0,53,0.00,,---,0.00,VWS V14.01,2013-04-06 04:00:00,
2013-04-06 00:05:00,47.0,31.2,30.03,NNW,331,0.0,0.0,54,0.00,,---,0.00,VWS V14.01,2013-04-06 04:05:00,
2013-04-06 00:10:00,46.5,31.2,30.03,NNW,331,0.0,0.0,55,0.00,,---,0.00,VWS V14.01,2013-04-06 04:10:00,
2013-04-06 00:15:00,46.0,31.2,30.03,NNW,331,0.0,0.0,56,0.00,,---,0.00,VWS V14.01,2013-04-06 04:15:00,
2013-04-06 00:20:00,45.5,30.7,30.03,NNW,331,0.0,0.0,56,0.00,,---,0.00,VWS V14.01,2013-04-06 04:20:00,
2013-04-06 00:25:00,45.2,30.9,30.04,NNW,331,0.0,0.0,57,0.00,,---,0.00,VWS V14.01,2013-04-06 04:25:00,
2013-04-06 00:30:00,44.9,31.0,30.04,NNW,331,0.0,0.0,58,0.00,,---,0.00,VWS V14.01,2013-04-06 04:30:00,
2013-04-06 00:35:00,44.5,31.1,30.04,NNW,331,0.0,0.0,59,0.00,,---,0.00,VWS V14.01,2013-04-06 04:35:00,
2013-04-06 00:40:00,44.1,31.1,30.04,NNW,331,0.0,0.0,60,0.00,,---,0.00,VWS V14.01,2013-04-06 04:40:00,
2013-04-06 00:45:00,43.7,31.1,30.04,NNW,331,0.0,0.0,61,0.00,,---,0.00,VWS V14.01,2013-04-06 04:45:00,
2013-04-06 00:50:00,43.3,31.2,30.05,NNW,331,0.0,0.0,62,0.00,,---,0.00,VWS V14.01,2013-04-06 04:50:00,
2013-04-06 00:55:00,43.0,31.7,30.05,NNW,331,0.0,0.0,64,0.00,,---,0.00,VWS V14.01,2013-04-06 04:55:00,
2013-04-06 01:00:00,42.9,31.6,30.05,NNW,331,0.0,0.0,64,0.00,,---,0.00,VWS V14.01,2013-04-06 05:00:00,
2013-04-06 01:05:00,42.7,31.8,30.05,NNW,331,0.0,0.0,65,0.00,,---,0.00,VWS V14.01,2013-04-06 05:05:00,
2013-04-06 01:10:00,42.5,31.6,30.05,NNW,331,0.0,1.0,65,0.00,,---,0.00,VWS V14.01,2013-04-06 05:10:00,
2013-04-06 01:15:00,42.4,31.9,30.05,NNW,331,0.0,1.0,66,0.00,,---,0.00,VWS V14.01,2013-04-06 05:15:00,
2013-04-06 01:20:00,42.6,32.0,30.06,NNW,331,0.0,1.0,66,0.00,,---,0.00,VWS V14.01,2013-04-06 05:20:00,
2013-04-06 01:25:00,42.8,32.6,30.06,NNW,331,0.0,1.0,67,0.00,,---,0.00,VWS V14.01,2013-04-06 05:25:00,
2013-04-06 01:30:00,43.1,32.2,30.06,NNW,331,0.0,0.0,65,0.00,,---,0.00,VWS V14.01,2013-04-06 05:30:00,
2013-04-06 01:35:00,43.4,32.4,30.06,NNW,331,0.0,1.0,65,0.00,,---,0.00,VWS V14.01,2013-04-06 05:35:00,
2013-04-06 01:40:00,43.8,32.4,30.06,NNW,331,0.0,1.0,64,0.00,,---,0.00,VWS V14.01,2013-04-06 05:40:00,
2013-04-06 01:45:00,44.1,32.3,30.06,NNW,331,1.0,2.0,63,0.00,,---,0.00,VWS V14.01,2013-04-06 05:45:00,
2013-04-06 01:50:00,44.3,32.5,30.06,NNW,331,0.0,1.0,63,0.00,,---,0.00,VWS V14.01,2013-04-06 05:50:00,
2013-04-06 01:55:00,44.5,32.7,30.07,NNW,331,0.0,2.0,63,0.00,,---,0.00,VWS V14.01,2013-04-06 05:55:00,
2013-04-06 02:00:00,44.6,32.8,30.07,NNW,331,2.0,2.0,63,0.00,,---,0.00,VWS V14.01,2013-04-06 06:00:00,
2013-04-06 02:05:00,44.6,32.8,30.07,NNW,331,0.0,2.0,63,0.00,,---,0.00,VWS V14.01,2013-04-06 06:05:00,
2013-04-06 02:10:00,44.5,32.7,30.07,NNW,331,0.0,2.0,63,0.00,,---,0.00,VWS V14.01,2013-04-06 06:10:00,
2013-04-06 02:15:00,44.4,32.6,30.07,NNW,331,0.0,2.0,63,0.00,,---,0.00,VWS V14.01,2013-04-06 06:15:00,
2013-04-06 02:20:00,44.2,32.8,30.07,NNW,331,1.0,1.0,64,0.00,,---,0.00,VWS V14.01,2013-04-06 06:20:00,
2013-04-06 02:25:00,43.8,32.8,30.07,NNW,331,0.0,1.0,65,0.00,,---,0.00,VWS V14.01,2013-04-06 06:25:00,
2013-04-06 02:30:00,43.4,32.8,30.07,NNW,331,0.0,0.0,66,0.00,,---,0.00,VWS V14.01,2013-04-06 06:30:00,
2013-04-06 02:35:00,43.1,32.9,30.07,NNW,331,0.0,0.0,67,0.00,,---,0.00,VWS V14.01,2013-04-06 06:35:00,
2013-04-06 02:40:00,42.9,32.7,30.08,NNW,331,0.0,1.0,67,0.00,,---,0.00,VWS V14.01,2013-04-06 06:40:00,
2013-04-06 02:45:00,42.7,32.9,30.08,NNW,331,1.0,1.0,68,0.00,,---,0.00,VWS V14.01,2013-04-06 06:45:00,
2013-04-06 02:50:00,42.5,32.7,30.08,NNW,331,0.0,1.0,68,0.00,,---,0.00,VWS V14.01,2013-04-06 06:50:00,
2013-04-06 02:55:00,42.2,32.8,30.08,NNW,331,0.0,1.0,69,0.00,,---,0.00,VWS V14.01,2013-04-06 06:55:00,
2013-04-06 03:00:00,41.9,32.8,30.08,NNW,331,1.0,1.0,70,0.00,,---,0.00,VWS V14.01,2013-04-06 07:00:00,
2013-04-06 03:05:00,41.6,32.9,30.08,NNW,331,0.0,2.0,71,0.00,,---,0.00,VWS V14.01,2013-04-06 07:05:00,
2013-04-06 03:10:00,41.5,32.8,30.08,NNW,331,0.0,0.0,71,0.00,,---,0.00,VWS V14.01,2013-04-06 07:10:00,
2013-04-06 03:15:00,41.6,32.9,30.08,NNW,331,0.0,0.0,71,0.00,,---,0.00,VWS V14.01,2013-04-06 07:15:00,
2013-04-06 03:20:00,41.6,32.6,30.08,NNW,331,0.0,0.0,70,0.00,,---,0.00,VWS V14.01,2013-04-06 07:20:00,
2013-04-06 03:25:00,41.6,32.6,30.08,NNW,331,0.0,0.0,70,0.00,,---,0.00,VWS V14.01,2013-04-06 07:25:00,
2013-04-06 03:30:00,41.6,32.9,30.08,NNW,331,0.0,0.0,71,0.00,,---,0.00,VWS V14.01,2013-04-06 07:30:00,
2013-04-06 03:35:00,41.5,32.8,30.08,NNW,331,0.0,0.0,71,0.00,,---,0.00,VWS V14.01,2013-04-06 07:35:00,
2013-04-06 03:40:00,41.5,32.8,30.08,NNW,331,0.0,0.0,71,0.00,,---,0.00,VWS V14.01,2013-04-06 07:40:00,
2013-04-06 03:45:00,41.5,32.8,30.09,NNW,331,0.0,0.0,71,0.00,,---,0.00,VWS V14.01,2013-04-06 07:45:00,
2013-04-06 03:50:00,41.5,32.5,30.09,NNW,331,0.0,0.0,70,0.00,,---,0.00,VWS V14.01,2013-04-06 07:50:00,
2013-04-06 03:55:00,41.5,32.5,30.09,NNW,331,0.0,0.0,70,0.00,,---,0.00,VWS V14.01,2013-04-06 07:55:00,
2013-04-06 04:00:00,41.5,32.5,30.09,NNW,331,0.0,0.0,70,0.00,,---,0.00,VWS V14.01,2013-04-06 08:00:00,
2013-04-06 04:05:00,41.6,32.2,30.09,NNW,331,0.0,0.0,69,0.00,,---,0.00,VWS V14.01,2013-04-06 08:05:00,
2013-04-06 04:10:00,41.7,32.3,30.09,NNW,331,0.0,0.0,69,0.00,,---,0.00,VWS V14.01,2013-04-06 08:10:00,
2013-04-06 04:15:00,41.6,32.6,30.09,NNW,331,0.0,0.0,70,0.00,,---,0.00,VWS V14.01,2013-04-06 08:15:00,
2013-04-06 04:20:00,41.6,32.6,30.09,NNW,331,1.0,1.0,70,0.00,,---,0.00,VWS V14.01,2013-04-06 08:20:00,
2013-04-06 04:25:00,41.5,32.5,30.09,NNW,331,0.0,2.0,70,0.00,,---,0.00,VWS V14.01,2013-04-06 08:25:00,
2013-04-06 04:30:00,41.5,32.1,30.09,NNW,331,0.0,1.0,69,0.00,,---,0.00,VWS V14.01,2013-04-06 08:30:00,
2013-04-06 04:35:00,41.5,32.1,30.09,NNW,331,0.0,1.0,69,0.00,,---,0.00,VWS V14.01,2013-04-06 08:35:00,
2013-04-06 04:40:00,41.5,32.1,30.10,NNW,331,0.0,1.0,69,0.00,,---,0.00,VWS V14.01,2013-04-06 08:40:00,
2013-04-06 04:45:00,41.5,31.7,30.10,NNW,331,0.0,2.0,68,0.00,,---,0.00,VWS V14.01,2013-04-06 08:45:00,
2013-04-06 04:50:00,41.4,31.6,30.10,NNW,331,0.0,2.0,68,0.00,,---,0.00,VWS V14.01,2013-04-06 08:50:00,
2013-04-06 04:55:00,41.5,31.7,30.10,NNW,331,0.0,1.0,68,0.00,,---,0.00,VWS V14.01,2013-04-06 08:55:00,
2013-04-06 05:00:00,41.5,31.7,30.11,NNW,331,0.0,1.0,68,0.00,,---,0.00,VWS V14.01,2013-04-06 09:00:00,
2013-04-06 05:05:00,41.5,31.4,30.11,NNW,331,0.0,1.0,67,0.00,,---,0.00,VWS V14.01,2013-04-06 09:05:00,
2013-04-06 05:10:00,41.6,31.5,30.11,NNW,331,0.0,1.0,67,0.00,,---,0.00,VWS V14.01,2013-04-06 09:10:00,
2013-04-06 05:15:00,41.8,31.3,30.12,NNW,331,0.0,0.0,66,0.00,,---,0.00,VWS V14.01,2013-04-06 09:15:00,
2013-04-06 05:20:00,41.9,31.4,30.12,NNW,331,0.0,0.0,66,0.00,,---,0.00,VWS V14.01,2013-04-06 09:20:00,
2013-04-06 05:25:00,42.0,31.5,30.12,NNW,331,0.0,0.0,66,0.00,,---,0.00,VWS V14.01,2013-04-06 09:25:00,
2013-04-06 05:30:00,42.0,31.5,30.12,NNW,331,0.0,0.0,66,0.00,,---,0.00,VWS V14.01,2013-04-06 09:30:00,
2013-04-06 05:35:00,41.8,31.3,30.13,NNW,331,0.0,0.0,66,0.00,,---,0.00,VWS V14.01,2013-04-06 09:35:00,
2013-04-06 05:40:00,41.6,31.5,30.13,NNW,331,0.0,0.0,67,0.00,,---,0.00,VWS V14.01,2013-04-06 09:40:00,
2013-04-06 05:45:00,41.4,31.6,30.13,NNW,331,0.0,1.0,68,0.00,,---,0.00,VWS V14.01,2013-04-06 09:45:00,
2013-04-06 05:51:00,41.2,31.5,30.14,NNW,331,0.0,1.0,68,0.00,,---,0.00,VWS V14.01,2013-04-06 09:51:00,
2013-04-06 05:56:00,40.9,31.5,30.14,NNW,331,0.0,0.0,69,0.00,,---,0.00,VWS V14.01,2013-04-06 09:56:00,
2013-04-06 06:01:00,40.7,31.7,30.14,NNW,331,0.0,1.0,70,0.00,,---,0.00,VWS V14.01,2013-04-06 10:01:00,
2013-04-06 06:05:00,40.6,31.6,30.14,NNW,331,0.0,0.0,70,0.00,,---,0.00,VWS V14.01,2013-04-06 10:05:00,
2013-04-06 06:11:00,40.4,31.4,30.14,NNW,331,0.0,0.0,70,0.00,,---,0.00,VWS V14.01,2013-04-06 10:11:00,
2013-04-06 06:16:00,40.2,31.6,30.15,NNW,331,0.0,0.0,71,0.00,,---,0.00,VWS V14.01,2013-04-06 10:16:00,
2013-04-06 06:21:00,40.0,31.7,30.15,NNW,331,0.0,1.0,72,0.00,,---,0.00,VWS V14.01,2013-04-06 10:21:00,
2013-04-06 06:26:00,39.7,31.4,30.15,NNW,331,0.0,1.0,72,0.00,,---,0.00,VWS V14.01,2013-04-06 10:26:00,
2013-04-06 06:30:00,39.5,31.6,30.15,NNW,331,0.0,1.0,73,0.00,,---,0.00,VWS V14.01,2013-04-06 10:30:00,
2013-04-06 06:35:00,39.2,31.3,30.15,NNW,331,0.0,0.0,73,0.00,,---,0.00,VWS V14.01,2013-04-06 10:35:00,
2013-04-06 06:40:00,39.3,31.7,30.16,NNW,331,0.0,0.0,74,0.00,,---,0.00,VWS V14.01,2013-04-06 10:40:00,
2013-04-06 06:46:00,39.3,31.7,30.16,NNW,331,0.0,0.0,74,0.00,,---,0.00,VWS V14.01,2013-04-06 10:46:00,
2013-04-06 06:51:00,39.2,31.6,30.17,NNW,331,0.0,0.0,74,0.00,,---,0.00,VWS V14.01,2013-04-06 10:51:00,
2013-04-06 06:56:00,38.9,31.3,30.17,NNW,331,0.0,1.0,74,0.00,,---,0.00,VWS V14.01,2013-04-06 10:56:00,
2013-04-06 07:01:00,38.5,31.3,30.17,NNW,331,0.0,0.0,75,0.00,,---,0.00,VWS V14.01,2013-04-06 11:01:00,
2013-04-06 07:06:00,38.2,31.3,30.18,NNW,331,0.0,0.0,76,0.00,,---,0.00,VWS V14.01,2013-04-06 11:06:00,
2013-04-06 07:11:00,38.0,31.4,30.18,NNW,331,0.0,0.0,77,0.00,,---,0.00,VWS V14.01,2013-04-06 11:11:00,
2013-04-06 07:16:00,37.9,31.4,30.18,NNW,331,0.0,0.0,77,0.00,,---,0.00,VWS V14.01,2013-04-06 11:16:00,
2013-04-06 07:21:00,37.6,31.4,30.19,NNW,331,0.0,1.0,78,0.00,,---,0.00,VWS V14.01,2013-04-06 11:21:00,
2013-04-06 07:26:00,37.3,31.4,30.19,NNW,331,0.0,0.0,79,0.00,,---,0.00,VWS V14.01,2013-04-06 11:26:00,
2013-04-06 07:31:00,37.1,31.2,30.19,NNW,331,0.0,1.0,79,0.00,,---,0.00,VWS V14.01,2013-04-06 11:31:00,
2013-04-06 07:33:00,37.0,31.1,30.19,NNW,331,0.0,1.0,79,0.00,,---,0.00,VWS V14.01,2013-04-06 11:33:00,
2013-04-06 07:38:00,37.1,31.2,30.19,NNW,331,0.0,0.0,79,0.00,,---,0.00,VWS V14.01,2013-04-06 11:38:00,
2013-04-06 07:43:00,37.5,31.6,30.20,NNW,331,1.0,1.0,79,0.00,,---,0.00,VWS V14.01,2013-04-06 11:43:00,
2013-04-06 07:48:00,37.7,32.1,30.20,NNW,331,0.0,1.0,80,0.00,,---,0.00,VWS V14.01,2013-04-06 11:48:00,
2013-04-06 07:53:00,37.7,31.8,30.21,NNW,331,0.0,0.0,79,0.00,,---,0.00,VWS V14.01,2013-04-06 11:53:00,
2013-04-06 07:58:00,37.7,31.8,30.21,NNW,331,0.0,0.0,79,0.00,,---,0.00,VWS V14.01,2013-04-06 11:58:00,
2013-04-06 08:03:00,37.5,31.9,30.21,NNW,331,0.0,0.0,80,0.00,,---,0.00,VWS V14.01,2013-04-06 12:03:00,
2013-04-06 08:08:00,37.4,31.8,30.22,NNW,331,0.0,1.0,80,0.00,,---,0.00,VWS V14.01,2013-04-06 12:08:00,
2013-04-06 08:13:00,37.4,31.8,30.22,NNW,331,0.0,1.0,80,0.00,,---,0.00,VWS V14.01,2013-04-06 12:13:00,
2013-04-06 08:18:00,37.7,32.1,30.22,NNW,331,0.0,1.0,80,0.00,,---,0.00,VWS V14.01,2013-04-06 12:18:00,
2013-04-06 08:23:00,38.0,32.4,30.23,NNW,331,0.0,1.0,80,0.00,,---,0.00,VWS V14.01,2013-04-06 12:23:00,
2013-04-06 08:28:00,38.4,32.5,30.23,NNW,331,0.0,3.0,79,0.00,,---,0.00,VWS V14.01,2013-04-06 12:28:00,
2013-04-06 08:33:00,38.9,32.6,30.23,NNW,331,0.0,2.0,78,0.00,,---,0.00,VWS V14.01,2013-04-06 12:33:00,
2013-04-06 08:38:00,39.5,32.9,30.23,NNW,331,0.0,1.0,77,0.00,,---,0.00,VWS V14.01,2013-04-06 12:38:00,
2013-04-06 08:43:00,40.2,33.2,30.23,NNW,331,0.0,1.0,76,0.00,,---,0.00,VWS V14.01,2013-04-06 12:43:00,
2013-04-06 08:48:00,41.1,33.1,30.23,NNW,331,0.0,3.0,73,0.00,,---,0.00,VWS V14.01,2013-04-06 12:48:00,
2013-04-06 08:53:00,41.8,33.5,30.24,NNW,331,0.0,1.0,72,0.00,,---,0.00,VWS V14.01,2013-04-06 12:53:00,
2013-04-06 08:58:00,42.4,34.0,30.24,NNW,331,0.0,2.0,72,0.00,,---,0.00,VWS V14.01,2013-04-06 12:58:00,
2013-04-06 09:03:00,42.9,33.8,30.24,NNW,331,0.0,1.0,70,0.00,,---,0.00,VWS V14.01,2013-04-06 13:03:00,
2013-04-06 09:08:00,43.4,33.9,30.24,NNW,331,0.0,1.0,69,0.00,,---,0.00,VWS V14.01,2013-04-06 13:08:00,
2013-04-06 09:13:00,44.0,34.9,30.24,NNW,331,0.0,1.0,70,0.00,,---,0.00,VWS V14.01,2013-04-06 13:13:00,
2013-04-06 09:18:00,44.7,34.4,30.24,NNW,331,0.0,1.0,67,0.00,,---,0.00,VWS V14.01,2013-04-06 13:18:00,
2013-04-06 09:23:00,45.3,34.2,30.24,WSW,248,1.0,2.0,65,0.00,,---,0.00,VWS V14.01,2013-04-06 13:23:00,
2013-04-06 09:28:00,46.0,33.7,30.24,South,173,0.0,6.0,62,0.00,,---,0.00,VWS V14.01,2013-04-06 13:28:00,
2013-04-06 09:33:00,46.7,34.0,30.24,SSE,164,4.0,6.0,61,0.00,,---,0.00,VWS V14.01,2013-04-06 13:33:00,
2013-04-06 09:38:00,47.3,34.5,30.24,SSE,153,3.0,6.0,61,0.00,,---,0.00,VWS V14.01,2013-04-06 13:38:00,
2013-04-06 09:43:00,47.6,34.0,30.24,SSE,168,3.0,4.0,59,0.00,,---,0.00,VWS V14.01,2013-04-06 13:43:00,
2013-04-06 09:48:00,48.0,33.9,30.24,SSE,156,3.0,5.0,58,0.00,,---,0.00,VWS V14.01,2013-04-06 13:48:00,
2013-04-06 09:53:00,48.3,33.8,30.24,East,82,2.0,5.0,57,0.00,,---,0.00,VWS V14.01,2013-04-06 13:53:00,
2013-04-06 09:58:00,48.7,33.7,30.24,SSE,155,0.0,7.0,56,0.00,,---,0.00,VWS V14.01,2013-04-06 13:58:00,
2013-04-06 10:03:00,49.0,33.1,30.24,South,178,1.0,7.0,54,0.00,,---,0.00,VWS V14.01,2013-04-06 14:03:00,
2013-04-06 10:08:00,49.2,32.3,30.25,SE,146,0.0,6.0,52,0.00,,---,0.00,VWS V14.01,2013-04-06 14:08:00,
2013-04-06 10:13:00,49.5,32.6,30.25,SSE,147,6.0,7.0,52,0.00,,---,0.00,VWS V14.01,2013-04-06 14:13:00,
2013-04-06 10:18:00,49.6,32.7,30.25,SE,146,4.0,6.0,52,0.00,,---,0.00,VWS V14.01,2013-04-06 14:18:00,
2013-04-06 10:23:00,49.9,34.4,30.25,SSE,164,5.0,10.0,55,0.00,,---,0.00,VWS V14.01,2013-04-06 14:23:00,
2013-04-06 10:28:00,50.1,34.6,30.25,SE,134,9.0,10.0,55,0.00,,---,0.00,VWS V14.01,2013-04-06 14:28:00,
2013-04-06 10:33:00,50.4,34.9,30.25,South,176,0.0,9.0,55,0.00,,---,0.00,VWS V14.01,2013-04-06 14:33:00,
2013-04-06 10:38:00,50.5,34.0,30.25,SE,140,5.0,9.0,53,0.00,,---,0.00,VWS V14.01,2013-04-06 14:38:00,
2013-04-06 10:43:00,50.6,33.6,30.25,South,184,2.0,9.0,52,0.00,,---,0.00,VWS V14.01,2013-04-06 14:43:00,
2013-04-06 10:48:00,50.9,33.4,30.25,SSW,202,4.0,8.0,51,0.00,,---,0.00,VWS V14.01,2013-04-06 14:48:00,
2013-04-06 10:53:00,51.3,33.8,30.25,SE,142,1.0,7.0,51,0.00,,---,0.00,VWS V14.01,2013-04-06 14:53:00,
2013-04-06 10:58:00,51.7,33.7,30.26,SE,138,3.0,7.0,50,0.00,,---,0.00,VWS V14.01,2013-04-06 14:58:00,
2013-04-06 11:03:00,51.9,33.9,30.26,SSE,150,3.0,8.0,50,0.00,,---,0.00,VWS V14.01,2013-04-06 15:03:00,
2013-04-06 11:08:00,52.3,34.7,30.26,South,169,3.0,7.0,51,0.00,,---,0.00,VWS V14.01,2013-04-06 15:08:00,
2013-04-06 11:13:00,52.9,33.8,30.26,East,96,0.0,5.0,48,0.00,,---,0.00,VWS V14.01,2013-04-06 15:13:00,
2013-04-06 11:18:00,53.3,34.1,30.26,ESE,121,2.0,5.0,48,0.00,,---,0.00,VWS V14.01,2013-04-06 15:18:00,
2013-04-06 11:23:00,53.5,33.2,30.26,SSE,149,4.0,9.0,46,0.00,,---,0.00,VWS V14.01,2013-04-06 15:23:00,
2013-04-06 11:28:00,53.6,33.9,30.26,South,180,2.0,9.0,47,0.00,,---,0.00,VWS V14.01,2013-04-06 15:28:00,
2013-04-06 11:33:00,54.2,36.0,30.26,SSE,154,5.0,8.0,50,0.00,,---,0.00,VWS V14.01,2013-04-06 15:33:00,
2013-04-06 11:38:00,54.3,35.0,30.26,South,177,2.0,5.0,48,0.00,,---,0.00,VWS V14.01,2013-04-06 15:38:00,
2013-04-06 11:43:00,54.7,34.3,30.26,ENE,59,4.0,6.0,46,0.00,,---,0.00,VWS V14.01,2013-04-06 15:43:00,
2013-04-06 11:48:00,55.0,35.2,30.26,NNE,17,0.0,5.0,47,0.00,,---,0.00,VWS V14.01,2013-04-06 15:48:00,
2013-04-06 11:53:00,55.4,36.6,30.26,South,171,7.0,7.0,49,0.00,,---,0.00,VWS V14.01,2013-04-06 15:53:00,
2013-04-06 11:58:00,55.8,34.8,30.26,SE,128,3.0,7.0,45,0.00,,---,0.00,VWS V14.01,2013-04-06 15:58:00,
2013-04-06 12:03:00,55.9,34.3,30.26,ENE,67,2.0,5.0,44,0.00,,---,0.00,VWS V14.01,2013-04-06 16:03:00,
2013-04-06 12:08:00,55.7,34.1,30.26,South,171,5.0,5.0,44,0.00,,---,0.00,VWS V14.01,2013-04-06 16:08:00,
2013-04-06 12:13:00,56.0,35.0,30.26,SSE,167,6.0,7.0,45,0.00,,---,0.00,VWS V14.01,2013-04-06 16:13:00,
2013-04-06 12:18:00,56.1,35.6,30.26,SSE,161,0.0,8.0,46,0.00,,---,0.00,VWS V14.01,2013-04-06 16:18:00,
2013-04-06 12:23:00,56.3,33.5,30.26,SSW,212,2.0,5.0,42,0.00,,---,0.00,VWS V14.01,2013-04-06 16:23:00,
2013-04-06 12:28:00,56.0,33.2,30.25,SW,229,1.0,4.0,42,0.00,,---,0.00,VWS V14.01,2013-04-06 16:28:00,
2013-04-06 12:33:00,56.0,35.0,30.25,ESE,116,3.0,5.0,45,0.00,,---,0.00,VWS V14.01,2013-04-06 16:33:00,
2013-04-06 12:38:00,56.6,35.0,30.25,East,84,2.0,9.0,44,0.00,,---,0.00,VWS V14.01,2013-04-06 16:38:00,
2013-04-06 12:43:00,56.9,35.2,30.25,SSE,154,1.0,7.0,44,0.00,,---,0.00,VWS V14.01,2013-04-06 16:43:00,
2013-04-06 12:48:00,57.0,35.9,30.25,SSW,192,2.0,6.0,45,0.00,,---,0.00,VWS V14.01,2013-04-06 16:48:00,
2013-04-06 12:53:00,57.1,34.2,30.25,SE,144,6.0,7.0,42,0.00,,---,0.00,VWS V14.01,2013-04-06 16:53:00,
2013-04-06 12:58:00,57.5,34.6,30.25,SSE,150,1.0,9.0,42,0.00,,---,0.00,VWS V14.01,2013-04-06 16:58:00,
2013-04-06 13:03:00,57.5,33.4,30.25,SE,135,2.0,6.0,40,0.00,,---,0.00,VWS V14.01,2013-04-06 17:03:00,
2013-04-06 13:08:00,57.4,35.1,30.25,ESE,109,2.0,4.0,43,0.00,,---,0.00,VWS V14.01,2013-04-06 17:08:00,
2013-04-06 13:13:00,57.8,35.5,30.24,NE,49,4.0,5.0,43,0.00,,---,0.00,VWS V14.01,2013-04-06 17:13:00,
2013-04-06 13:18:00,57.8,34.3,30.24,SE,134,2.0,4.0,41,0.00,,---,0.00,VWS V14.01,2013-04-06 17:18:00,
2013-04-06 13:23:00,57.9,36.7,30.24,SE,124,7.0,8.0,45,0.00,,---,0.00,VWS V14.01,2013-04-06 17:23:00,
2013-04-06 13:28:00,58.5,34.9,30.24,South,189,3.0,7.0,41,0.00,,---,0.00,VWS V14.01,2013-04-06 17:28:00,
2013-04-06 13:33:00,58.7,36.3,30.24,South,179,1.0,3.0,43,0.00,,---,0.00,VWS V14.01,2013-04-06 17:33:00,
2013-04-06 13:38:00,59.3,36.2,30.24,SSW,213,4.0,8.0,42,0.00,,---,0.00,VWS V14.01,2013-04-06 17:38:00,
2013-04-06 13:43:00,59.4,35.1,30.24,SSW,192,1.0,8.0,40,0.00,,---,0.00,VWS V14.01,2013-04-06 17:43:00,
2013-04-06 13:48:00,59.3,35.0,30.24,West,281,1.0,8.0,40,0.00,,---,0.00,VWS V14.01,2013-04-06 17:48:00,
2013-04-06 13:53:00,59.3,34.4,30.24,SSW,211,3.0,8.0,39,0.00,,---,0.00,VWS V14.01,2013-04-06 17:53:00,
2013-04-06 13:58:00,59.4,35.1,30.23,SSE,148,5.0,7.0,40,0.00,,---,0.00,VWS V14.01,2013-04-06 17:58:00,
2013-04-06 14:03:00,59.6,33.3,30.23,SSE,164,1.0,6.0,37,0.00,,---,0.00,VWS V14.01,2013-04-06 18:03:00,
2013-04-06 14:08:00,59.6,33.3,30.23,SE,145,4.0,6.0,37,0.00,,---,0.00,VWS V14.01,2013-04-06 18:08:00,
2013-04-06 14:13:00,59.7,33.4,30.23,ENE,77,2.0,4.0,37,0.00,,---,0.00,VWS V14.01,2013-04-06 18:13:00,
2013-04-06 14:18:00,59.9,32.2,30.23,SW,217,3.0,6.0,35,0.00,,---,0.00,VWS V14.01,2013-04-06 18:18:00,
2013-04-06 14:23:00,60.1,33.1,30.22,SSW,194,3.0,5.0,36,0.00,,---,0.00,VWS V14.01,2013-04-06 18:23:00,
2013-04-06 14:28:00,60.3,31.8,30.22,WSW,247,1.0,4.0,34,0.00,,---,0.00,VWS V14.01,2013-04-06 18:28:00,
2013-04-06 14:33:00,60.8,33.0,30.22,South,172,6.0,8.0,35,0.00,,---,0.00,VWS V14.01,2013-04-06 18:33:00,
2013-04-06 14:38:00,60.8,33.7,30.22,South,186,2.0,9.0,36,0.00,,---,0.00,VWS V14.01,2013-04-06 18:38:00,
2013-04-06 14:43:00,61.1,33.3,30.22,South,173,5.0,10.0,35,0.00,,---,0.00,VWS V14.01,2013-04-06 18:43:00,
2013-04-06 14:48:00,61.1,31.8,30.22,SSW,204,1.0,9.0,33,0.00,,---,0.00,VWS V14.01,2013-04-06 18:48:00,
2013-04-06 14:53:00,61.0,31.0,30.22,ESE,121,3.0,6.0,32,0.00,,---,0.00,VWS V14.01,2013-04-06 18:53:00,
2013-04-06 14:58:00,60.7,30.7,30.21,South,190,3.0,8.0,32,0.00,,---,0.00,VWS V14.01,2013-04-06 18:58:00,
2013-04-06 15:03:00,60.8,32.3,30.21,East,80,5.0,11.0,34,0.00,,---,0.00,VWS V14.01,2013-04-06 19:03:00,
2013-04-06 15:08:00,61.1,31.8,30.21,SSE,166,4.0,8.0,33,0.00,,---,0.00,VWS V14.01,2013-04-06 19:08:00,
2013-04-06 15:13:00,61.2,29.5,30.21,ESE,115,0.0,6.0,30,0.00,,---,0.00,VWS V14.01,2013-04-06 19:13:00,
2013-04-06 15:18:00,61.1,31.0,30.21,SE,128,3.0,8.0,32,0.00,,---,0.00,VWS V14.01,2013-04-06 19:18:00,
2013-04-06 15:23:00,61.3,32.7,30.20,SSE,161,6.0,8.0,34,0.00,,---,0.00,VWS V14.01,2013-04-06 19:23:00,
2013-04-06 15:28:00,61.3,30.4,30.20,SSE,165,5.0,11.0,31,0.00,,---,0.00,VWS V14.01,2013-04-06 19:28:00,
2013-04-06 15:33:00,61.5,30.6,30.20,ENE,65,1.0,6.0,31,0.00,,---,0.00,VWS V14.01,2013-04-06 19:33:00,
2013-04-06 15:38:00,61.6,31.5,30.20,ESE,105,1.0,4.0,32,0.00,,---,0.00,VWS V14.01,2013-04-06 19:38:00,
2013-04-06 15:43:00,62.0,32.6,30.20,SSE,161,6.0,9.0,33,0.00,,---,0.00,VWS V14.01,2013-04-06 19:43:00,
2013-04-06 15:48:00,62.1,31.1,30.19,NE,44,3.0,9.0,31,0.00,,---,0.00,VWS V14.01,2013-04-06 19:48:00,
2013-04-06 15:53:00,61.9,34.7,30.19,SE,146,3.0,8.0,36,0.00,,---,0.00,VWS V14.01,2013-04-06 19:53:00,
2013-04-06 15:58:00,62.2,34.2,30.19,ESE,120,1.0,6.0,35,0.00,,---,0.00,VWS V14.01,2013-04-06 19:58:00,
2013-04-06 16:03:00,62.3,32.1,30.19,ENE,75,4.0,8.0,32,0.00,,---,0.00,VWS V14.01,2013-04-06 20:03:00,
2013-04-06 16:08:00,61.9,32.5,30.18,East,97,2.0,5.0,33,0.00,,---,0.00,VWS V14.01,2013-04-06 20:08:00,
2013-04-06 16:13:00,62.0,32.6,30.18,SE,129,2.0,11.0,33,0.00,,---,0.00,VWS V14.01,2013-04-06 20:13:00,
2013-04-06 16:18:00,61.9,32.5,30.18,East,92,3.0,6.0,33,0.00,,---,0.00,VWS V14.01,2013-04-06 20:18:00,
2013-04-06 16:23:00,61.8,32.4,30.18,SE,135,1.0,5.0,33,0.00,,---,0.00,VWS V14.01,2013-04-06 20:23:00,
2013-04-06 16:28:00,62.2,33.5,30.18,ESE,104,1.0,9.0,34,0.00,,---,0.00,VWS V14.01,2013-04-06 20:28:00,
2013-04-06 16:33:00,62.4,31.4,30.17,SSE,161,10.0,10.0,31,0.00,,---,0.00,VWS V14.01,2013-04-06 20:33:00,
2013-04-06 16:38:00,62.1,31.9,30.17,SE,142,7.0,10.0,32,0.00,,---,0.00,VWS V14.01,2013-04-06 20:38:00,
2013-04-06 16:43:00,61.8,30.9,30.17,SE,132,5.0,6.0,31,0.00,,---,0.00,VWS V14.01,2013-04-06 20:43:00,
2013-04-06 16:48:00,61.9,32.5,30.17,SSE,161,3.0,6.0,33,0.00,,---,0.00,VWS V14.01,2013-04-06 20:48:00,
2013-04-06 16:53:00,62.2,32.0,30.17,SE,124,5.0,7.0,32,0.00,,---,0.00,VWS V14.01,2013-04-06 20:53:00,
2013-04-06 16:58:00,62.2,31.2,30.18,SSE,165,4.0,12.0,31,0.00,,---,0.00,VWS V14.01,2013-04-06 20:58:00,
2013-04-06 17:03:00,62.1,30.3,30.18,SSE,165,3.0,8.0,30,0.00,,---,0.00,VWS V14.01,2013-04-06 21:03:00,
2013-04-06 17:08:00,62.2,31.2,30.18,SSE,163,5.0,10.0,31,0.00,,---,0.00,VWS V14.01,2013-04-06 21:08:00,
2013-04-06 17:13:00,62.2,30.4,30.18,ESE,109,2.0,5.0,30,0.00,,---,0.00,VWS V14.01,2013-04-06 21:13:00,
2013-04-06 17:18:00,61.8,30.1,30.18,East,81,5.0,7.0,30,0.00,,---,0.00,VWS V14.01,2013-04-06 21:18:00,
2013-04-06 17:23:00,61.5,29.8,30.18,SSE,159,5.0,7.0,30,0.00,,---,0.00,VWS V14.01,2013-04-06 21:23:00,
2013-04-06 17:28:00,61.3,29.6,30.18,ENE,76,3.0,11.0,30,0.00,,---,0.00,VWS V14.01,2013-04-06 21:28:00,
2013-04-06 17:33:00,61.3,30.4,30.18,SSE,161,4.0,9.0,31,0.00,,---,0.00,VWS V14.01,2013-04-06 21:33:00,
2013-04-06 17:38:00,61.1,28.6,30.18,South,184,5.0,10.0,29,0.00,,---,0.00,VWS V14.01,2013-04-06 21:38:00,
2013-04-06 17:43:00,60.9,29.3,30.18,SE,128,0.0,6.0,30,0.00,,---,0.00,VWS V14.01,2013-04-06 21:43:00,
2013-04-06 17:48:00,60.8,30.0,30.18,South,174,3.0,5.0,31,0.00,,---,0.00,VWS V14.01,2013-04-06 21:48:00,
2013-04-06 17:53:00,60.7,29.9,30.18,SSE,150,7.0,8.0,31,0.00,,---,0.00,VWS V14.01,2013-04-06 21:53:00,
2013-04-06 17:58:00,60.5,30.5,30.18,South,171,5.0,9.0,32,0.00,,---,0.00,VWS V14.01,2013-04-06 21:58:00,
2013-04-06 18:03:00,60.3,31.1,30.18,South,175,5.0,6.0,33,0.00,,---,0.00,VWS V14.01,2013-04-06 22:03:00,
2013-04-06 18:08:00,60.2,30.2,30.18,South,184,1.0,7.0,32,0.00,,---,0.00,VWS V14.01,2013-04-06 22:08:00,
2013-04-06 18:13:00,60.2,29.5,30.18,South,178,2.0,9.0,31,0.00,,---,0.00,VWS V14.01,2013-04-06 22:13:00,
2013-04-06 18:18:00,60.0,30.1,30.18,South,184,4.0,7.0,32,0.00,,---,0.00,VWS V14.01,2013-04-06 22:18:00,
2013-04-06 18:23:00,60.0,29.3,30.18,SSE,158,4.0,9.0,31,0.00,,---,0.00,VWS V14.01,2013-04-06 22:23:00,
2013-04-06 18:28:00,59.9,30.0,30.18,SSE,167,4.0,7.0,32,0.00,,---,0.00,VWS V14.01,2013-04-06 22:28:00,
2013-04-06 18:33:00,59.7,29.8,30.18,SE,146,1.0,6.0,32,0.00,,---,0.00,VWS V14.01,2013-04-06 22:33:00,
2013-04-06 18:38:00,59.6,29.7,30.18,South,175,4.0,7.0,32,0.00,,---,0.00,VWS V14.01,2013-04-06 22:38:00,
2013-04-06 18:43:00,59.3,29.5,30.18,SSE,148,2.0,5.0,32,0.00,,---,0.00,VWS V14.01,2013-04-06 22:43:00,
2013-04-06 18:48:00,59.2,29.4,30.18,South,179,2.0,6.0,32,0.00,,---,0.00,VWS V14.01,2013-04-06 22:48:00,
2013-04-06 18:53:00,58.9,29.1,30.18,SE,139,6.0,10.0,32,0.00,,---,0.00,VWS V14.01,2013-04-06 22:53:00,
2013-04-06 18:58:00,58.7,28.9,30.18,SSE,156,3.0,7.0,32,0.00,,---,0.00,VWS V14.01,2013-04-06 22:58:00,
2013-04-06 19:03:00,58.5,29.5,30.18,SE,137,1.0,6.0,33,0.00,,---,0.00,VWS V14.01,2013-04-06 23:03:00,
2013-04-06 19:08:00,58.3,29.3,30.18,SE,136,2.0,4.0,33,0.00,,---,0.00,VWS V14.01,2013-04-06 23:08:00,
2013-04-06 19:13:00,58.1,29.9,30.18,SE,146,1.0,6.0,34,0.00,,---,0.00,VWS V14.01,2013-04-06 23:13:00,
2013-04-06 19:18:00,58.0,29.1,30.18,SSE,152,0.0,4.0,33,0.00,,---,0.00,VWS V14.01,2013-04-06 23:18:00,
2013-04-06 19:23:00,57.8,29.6,30.18,SSE,162,1.0,5.0,34,0.00,,---,0.00,VWS V14.01,2013-04-06 23:23:00,
2013-04-06 19:28:00,57.6,29.5,30.18,SE,138,2.0,5.0,34,0.00,,---,0.00,VWS V14.01,2013-04-06 23:28:00,
2013-04-06 19:33:00,57.4,30.0,30.18,SSE,159,2.0,4.0,35,0.00,,---,0.00,VWS V14.01,2013-04-06 23:33:00,
2013-04-06 19:38:00,57.2,29.1,30.18,SSE,153,0.0,4.0,34,0.00,,---,0.00,VWS V14.01,2013-04-06 23:38:00,
2013-04-06 19:43:00,57.0,28.9,30.19,SE,129,1.0,4.0,34,0.00,,---,0.00,VWS V14.01,2013-04-06 23:43:00,
2013-04-06 19:48:00,56.8,28.8,30.19,SE,134,2.0,3.0,34,0.00,,---,0.00,VWS V14.01,2013-04-06 23:48:00,
2013-04-06 19:53:00,56.7,28.7,30.19,SSE,159,0.0,3.0,34,0.00,,---,0.00,VWS V14.01,2013-04-06 23:53:00,
2013-04-06 19:58:00,56.4,28.4,30.19,SSE,159,0.0,2.0,34,0.00,,---,0.00,VWS V14.01,2013-04-06 23:58:00,
2013-04-06 20:03:00,56.2,28.2,30.19,SE,142,1.0,2.0,34,0.00,,---,0.00,VWS V14.01,2013-04-07 00:03:00,
2013-04-06 20:08:00,56.0,28.8,30.19,SE,142,0.0,2.0,35,0.00,,---,0.00,VWS V14.01,2013-04-07 00:08:00,
2013-04-06 20:13:00,55.8,28.6,30.19,SE,141,1.0,2.0,35,0.00,,---,0.00,VWS V14.01,2013-04-07 00:13:00,
2013-04-06 20:18:00,55.6,29.1,30.19,SE,136,0.0,2.0,36,0.00,,---,0.00,VWS V14.01,2013-04-07 00:18:00,
2013-04-06 20:23:00,55.4,28.9,30.19,SE,136,0.0,3.0,36,0.00,,---,0.00,VWS V14.01,2013-04-07 00:23:00,
2013-04-06 20:28:00,55.2,28.0,30.19,SE,130,0.0,2.0,35,0.00,,---,0.00,VWS V14.01,2013-04-07 00:28:00,
2013-04-06 20:33:00,55.0,27.9,30.19,SE,130,0.0,0.0,35,0.00,,---,0.00,VWS V14.01,2013-04-07 00:33:00,
2013-04-06 20:38:00,54.8,28.4,30.20,SE,133,0.0,3.0,36,0.00,,---,0.00,VWS V14.01,2013-04-07 00:38:00,
2013-04-06 20:43:00,54.6,28.2,30.20,SE,133,0.0,2.0,36,0.00,,---,0.00,VWS V14.01,2013-04-07 00:43:00,
2013-04-06 20:48:00,54.5,27.4,30.20,SE,133,0.0,2.0,35,0.00,,---,0.00,VWS V14.01,2013-04-07 00:48:00,
2013-04-06 20:53:00,54.3,27.2,30.20,SE,133,0.0,1.0,35,0.00,,---,0.00,VWS V14.01,2013-04-07 00:53:00,
2013-04-06 20:58:00,54.1,27.1,30.20,SE,133,0.0,1.0,35,0.00,,---,0.00,VWS V14.01,2013-04-07 00:58:00,
2013-04-06 21:03:00,53.9,26.9,30.20,SE,133,0.0,1.0,35,0.00,,---,0.00,VWS V14.01,2013-04-07 01:03:00,
2013-04-06 21:08:00,53.7,27.4,30.20,SE,133,0.0,1.0,36,0.00,,---,0.00,VWS V14.01,2013-04-07 01:08:00,
2013-04-06 21:13:00,53.5,26.5,30.20,SE,133,0.0,2.0,35,0.00,,---,0.00,VWS V14.01,2013-04-07 01:13:00,
2013-04-06 21:18:00,53.3,26.4,30.21,SE,133,0.0,2.0,35,0.00,,---,0.00,VWS V14.01,2013-04-07 01:18:00,
2013-04-06 21:23:00,53.2,26.3,30.21,SE,133,0.0,1.0,35,0.00,,---,0.00,VWS V14.01,2013-04-07 01:23:00,
2013-04-06 21:28:00,53.0,26.8,30.21,SE,133,0.0,2.0,36,0.00,,---,0.00,VWS V14.01,2013-04-07 01:28:00,
2013-04-06 21:33:00,52.9,26.7,30.21,SE,133,0.0,1.0,36,0.00,,---,0.00,VWS V14.01,2013-04-07 01:33:00,
2013-04-06 21:38:00,52.8,26.6,30.21,SE,130,2.0,2.0,36,0.00,,---,0.00,VWS V14.01,2013-04-07 01:38:00,
2013-04-06 21:43:00,52.7,26.5,30.21,SE,130,0.0,2.0,36,0.00,,---,0.00,VWS V14.01,2013-04-07 01:43:00,
2013-04-06 21:48:00,52.6,26.4,30.21,SE,130,0.0,2.0,36,0.00,,---,0.00,VWS V14.01,2013-04-07 01:48:00,
2013-04-06 21:53:00,52.5,26.3,30.21,ESE,117,1.0,3.0,36,0.00,,---,0.00,VWS V14.01,2013-04-07 01:53:00,
2013-04-06 21:58:00,52.4,26.2,30.21,ESE,116,0.0,3.0,36,0.00,,---,0.00,VWS V14.01,2013-04-07 01:58:00,
2013-04-06 22:04:00,52.2,26.1,30.21,ESE,116,0.0,2.0,36,0.00,,---,0.00,VWS V14.01,2013-04-07 02:04:00,
2013-04-06 22:09:00,52.2,25.4,30.21,ESE,116,0.0,2.0,35,0.00,,---,0.00,VWS V14.01,2013-04-07 02:09:00,
2013-04-06 22:14:00,52.1,26.0,30.21,ESE,111,0.0,3.0,36,0.00,,---,0.00,VWS V14.01,2013-04-07 02:14:00,
2013-04-06 22:19:00,52.0,25.9,30.21,ESE,111,0.0,1.0,36,0.00,,---,0.00,VWS V14.01,2013-04-07 02:19:00,
2013-04-06 22:24:00,51.9,25.8,30.22,ESE,111,0.0,2.0,36,0.00,,---,0.00,VWS V14.01,2013-04-07 02:24:00,
2013-04-06 22:29:00,51.7,25.6,30.22,ESE,111,0.0,1.0,36,0.00,,---,0.00,VWS V14.01,2013-04-07 02:29:00,
2013-04-06 22:34:00,51.6,25.5,30.21,ESE,111,0.0,1.0,36,0.00,,---,0.00,VWS V14.01,2013-04-07 02:34:00,
2013-04-06 22:39:00,51.4,26.0,30.21,SSE,155,0.0,2.0,37,0.00,,---,0.00,VWS V14.01,2013-04-07 02:39:00,
2013-04-06 22:44:00,51.2,25.8,30.21,SSE,155,0.0,0.0,37,0.00,,---,0.00,VWS V14.01,2013-04-07 02:44:00,
2013-04-06 22:49:00,51.1,25.8,30.21,SSE,155,0.0,1.0,37,0.00,,---,0.00,VWS V14.01,2013-04-07 02:49:00,
2013-04-06 22:54:00,50.9,26.2,30.21,SSE,155,0.0,1.0,38,0.00,,---,0.00,VWS V14.01,2013-04-07 02:54:00,
2013-04-06 22:59:00,50.6,27.2,30.21,SSE,155,0.0,0.0,40,0.00,,---,0.00,VWS V14.01,2013-04-07 02:59:00,
2013-04-06 23:04:00,50.1,28.5,30.21,SSE,155,0.0,3.0,43,0.00,,---,0.00,VWS V14.01,2013-04-07 03:04:00,
2013-04-06 23:09:00,49.7,28.7,30.21,SSE,155,0.0,0.0,44,0.00,,---,0.00,VWS V14.01,2013-04-07 03:09:00,
2013-04-06 23:14:00,49.4,29.0,30.21,SSE,155,0.0,0.0,45,0.00,,---,0.00,VWS V14.01,2013-04-07 03:14:00,
2013-04-06 23:19:00,49.0,28.6,30.21,SSE,155,0.0,0.0,45,0.00,,---,0.00,VWS V14.01,2013-04-07 03:19:00,
2013-04-06 23:24:00,48.6,29.3,30.21,SSE,155,0.0,0.0,47,0.00,,---,0.00,VWS V14.01,2013-04-07 03:24:00,
2013-04-06 23:29:00,48.0,28.8,30.21,SSE,155,0.0,2.0,47,0.00,,---,0.00,VWS V14.01,2013-04-07 03:29:00,
2013-04-06 23:34:00,47.6,29.9,30.21,SSE,155,0.0,3.0,50,0.00,,---,0.00,VWS V14.01,2013-04-07 03:34:00,
2013-04-06 23:39:00,47.2,29.0,30.21,SSE,155,0.0,2.0,49,0.00,,---,0.00,VWS V14.01,2013-04-07 03:39:00,
2013-04-06 23:44:00,46.9,28.2,30.21,SSE,155,0.0,0.0,48,0.00,,---,0.00,VWS V14.01,2013-04-07 03:44:00,
2013-04-06 23:49:00,46.7,29.1,30.21,SSE,155,1.0,1.0,50,0.00,,---,0.00,VWS V14.01,2013-04-07 03:49:00,
2013-04-06 23:54:00,46.4,29.8,30.21,SSE,155,0.0,1.0,52,0.00,,---,0.00,VWS V14.01,2013-04-07 03:54:00,
2013-04-06 23:59:00,46.2,29.6,30.21,SSE,155,0.0,2.0,52,0.00,,---,0.00,VWS V14.01,2013-04-07 03:59:00,